User: anonymous   Login
Location: Unspecified
(0.0000°N, 0.0000°E)
Time: 05:32:02
(UTC+00:00)
Language:

COSMOS 2391 - Orbit

View from above orbital plane
View from above orbital plane
View from above satellite
View from above satellite

Ground track
Ground track

The orbit data is extracted from the following two-line orbital elements,

1 27465U 02036B   17177.86618345 +.00000014 +00000-0 +31552-4 0  9994
2 27465 082.4844 231.8999 0024995 222.4808 137.4341 12.44876859680294
Epoch (UTC): 26 June 2017 20:47:18
Eccentricity: 0.0024995
inclination: 82.4844°
perigee height: 1466 km
apogee height: 1505 km
right ascension of ascending node: 231.8999°
argument of perigee: 222.4808°
revolutions per day: 12.44876859
mean anomaly at epoch: 137.4341°
orbit number at epoch: 68029

The dashed part of the orbit path shows where the satellite is in the earth's shadow,  

DLR